カタログに戻る

STARLINK-6040

運用中通信VLEO
NORAD 56809·PAYLOAD·🇺🇸 United States

打ち上げ May 31, 2023 から Vandenberg Space Force Base

Loading…

次のパス (今後24時間)

TLE

最新Source: CelesTrak SupGP

元期: Sep 15, 2026, 01:32 UTC

1 56809C 23078AU  26258.06437500 -.00045288  00000+0 -37950-2 0  2588
2 56809  70.0014 226.8204 0003535 266.7842 339.6810 14.98355293    17

AllMySatでSTARLINK-6040をリアルタイム追跡

Download on the App Store